Location: Ponte Samoggia
(44.5667°N, 11.1333°E)
Time: 22:55:17
(UTC+00:00)

COSMOS 2455 - Pass Details

Date: 26 May 2022
Orbit: 901 x 908 km, 67.1° (Epoch: 29 June)

Event Time Altitude Azimuth Distance (km) Brightness Sun altitude
Exits shadow 02:04:51 19° 221° (SW) 2,026 4.0 -13.5°
Maximum altitude 02:09:18 73° 303° (WNW) 951 2.9 -12.9°
Drops below altitude 10° 02:15:20 10° 28° (NNE) 2,600 6.6 -12.2°
Sets 02:17:53 0° 31° (NNE) 3,546 7.7 -11.9°
